International Virtual Aviation Organisation

Russian Federation and Kazakhstan MCD

 

Карточка аэропорта UHWW

Внимание!
Информация на этой странице в стадии наполнения.
Если вы не увидели какой-то информации, или заметили неточность - пожалуйста сообщите нам!
Спасибо!
Команда RU-STAFF
Название аэропортаКневичи
Название аэропорта (англ.)Knevichi
Превышение59 ft. (18 m.)
Координаты43°23.886', 132°8.9400000000001'
Высота перехода1800m
Эшелон переходаFL080
Коды ответчика5050-5077
Зона ОрВДХабаровск РПИ (UHHH)
Данные METARUHWW 080230Z 10002MPS 050V130 9999 NSC M06/M17 Q1026 R25L/0///70 NOSIG RMK QFE768
Проноз погоды (TAF)UHWW 080200Z 0803/0903 01003MPS 9999 SCT030 BECMG 0806/0809 16003MPS BKN011 BKN020CB BECMG 0812/0814 03003MPS 3100 -SHSN
NOTAMshow/hide NOTAM
AWOS   TABLE

Информация о ВПП

ВПП Длина ВПП (м.) Покрытие Курс ВПП Частота ILS
07R3500Бетон71109.3
25L3500Бетон251110.1

Диспетчерские позиции

Позывной Наименование органа УВД Частота
UHWW_APPВладивосток-Подход124.7
UHWW_R_APPВладивосток-Круг119.5
UHWW_TWRВладивосток-Старт126.0
UHWW_GNDВладивосток-Руление121.7
UHWW-FM1Машина сопровождения121.700



Спутниковое изображение